Location: *
(55.5817°S, 142.4781°W)
Time: 07:29:24
(UTC+00:00)

Cosmos 1980 Rocket - Pass Details

Date: 29 April 2025
Orbit: 830 x 847 km, 71.0° (Epoch: 23 May)

Event Time Altitude Azimuth Distance (km) Brightness Sun altitude
Rises 14:44:45 0° 335° (NNW) 3,394 5.1 -18.0°
Reaches altitude 10° 14:47:10 10° 336° (NNW) 2,469 4.4 -17.7°
Maximum altitude 14:52:50 76° 60° (ENE) 887 2.4 -16.9°
Drops below altitude 10° 14:58:36 10° 144° (SE) 2,505 5.1 -16.1°
Sets 15:01:04 0° 145° (SE) 3,448 5.8 -15.7°
